Hourly Data Report for August 22, 2021

KUGLUKTUK A
NUNAVUT
Current Station Operator: NAVCAN

67°49'00.000" N
115°08'38.000" W
22.60 m
2300903
71938
YCO

Download Data

Hourly Data (August 2021)
Hourly Data Report for August 22, 2021
TIME
LST
Temp Definition
°C
Dew Point Definition
°C
Rel Hum Definition
%
Precip. Amount Definition
mm

Wind Dir Definition
10's deg

Wind Spd Definition
km/h
Visibility Definition
km
Stn Press Definition
kPa
Hmdx Definition


Wind Chill Definition


Weather Definition


00:00 8.1 1.6 63   15 11 24.1 101.57     LegendNANA
01:00 7.4 2.6 72   36 2 24.1 101.56     LegendNANA
02:00 7.7 3.4 74   36 2 24.1 101.54     Mostly Cloudy
03:00 8.4 2.6 67   12 5 24.1 101.53     LegendNANA
04:00 8.8 2.9 66   10 8 24.1 101.52     LegendNANA
05:00 8.7 4.2 73   13 5 24.1 101.51     Mostly Cloudy
06:00 9.3 4.2 70   16 3 24.1 101.49     LegendNANA
07:00 9.3 5.0 74   19 7 24.1 101.48     LegendNANA
08:00 9.6 6.9 84   36 3 24.1 101.46     Mostly Cloudy
09:00 12.2 4.8 60   21 12 24.1 101.44     LegendNANA
10:00 12.5 5.0 60   21 10 24.1 101.43     LegendNANA
11:00 13.5 5.2 57   21 9 24.1 101.41     Mostly Cloudy
12:00 14.6 7.5 62   31 5 24.1 101.37     LegendNANA
13:00 16.1 4.4 45   17 8 24.1 101.33     LegendNANA
14:00 16.8 -0.1 32   22 22 24.1 101.31     Mostly Cloudy
15:00 18.4 1.3 32   23 21 24.1 101.29     LegendNANA
16:00 17.1 0.7 33   21 17 24.1 101.24     LegendNANA
17:00 18.1 0.5 30   22 23 24.1 101.19     Mostly Cloudy
18:00 16.7 1.2 35   23 20 24.1 101.15     LegendNANA
19:00 15.4 2.4 41   23 15 24.1 101.15     LegendNANA
20:00 11.4 3.0 56   22 13 24.1 101.12     Mainly Clear
21:00 8.4 2.0 64   20 16 24.1 101.11     LegendNANA
22:00 7.3 1.7 68   20 16 24.1 101.09     LegendNANA
23:00 7.0 2.0 71   20 16 24.1 101.06     Mainly Clear

Notes on Data Quality.

Legend

  • E = Estimated
  • M = Missing
  • NA = Not Available*
  • [empty] = Indicates an unobserved value
Date modified: